Temperature
11 10 10 10 9 9 9 9 9 9 8 8 8 8 8 8 8 8 7 7 7 7 7 7 7 7 7 7 7 7 7 7 7 7 7 8 8 8 9 9 9 9 9
10 10 10 9 9 9 9 9 8 8 8 8 8 8 8 8 8 7 7 7 7 7 7 6 6 6 6 7 7 6 6 6 6 6 5 6 7 7 8 8 8 8 9
10 10 10 9 9 9 9 9 8 8 8 8 8 8 7 7 7 7 7 7 7 6 6 6 6 6 6 6 6 6 6 6 6 5 5 5 5 6 7 7 7 8 8
10 10 9 9 9 9 9 8 8 8 8 7 7 7 7 7 7 7 7 6 6 6 6 6 6 5 5 5 5 5 5 5 5 5 5 5 5 4 5 6 6 7 7
9 9 9 9 9 9 8 8 8 8 7 7 7 7 7 6 6 6 6 6 6 6 6 5 5 5 5 5 5 5 5 5 5 4 4 4 4 4 4 4 5 6 6
9 9 9 9 9 8 8 8 8 8 7 7 7 7 6 6 6 6 6 6 5 5 5 5 5 5 5 5 5 5 4 4 4 4 4 4 4 4 4 4 4 5 6
9 9 9 8 8 8 8 8 7 7 7 7 7 6 6 6 6 5 5 5 5 5 5 5 5 4 4 4 4 4 4 4 4 4 4 4 4 4 4 4 4 4 5
8 8 8 8 8 8 8 7 7 7 7 7 7 6 6 5 5 5 5 5 5 5 5 4 4 4 4 4 4 4 4 4 4 4 3 3 4 4 4 4 4 3 4
8 8 8 8 8 8 7 7 7 7 6 6 6 6 6 5 5 5 5 5 4 4 4 4 4 4 4 4 4 3 3 3 3 3 3 3 3 3 4 4 4 3 3
8 8 8 8 8 7 7 7 7 6 6 6 6 6 5 5 5 5 5 4 4 4 4 4 4 3 3 3 3 3 3 3 3 3 3 3 3 3 3 3 3 3 3
8 8 8 7 7 7 7 7 6 6 6 6 5 5 5 5 5 4 4 4 4 4 3 3 3 3 3 3 3 3 3 3 3 3 3 3 3 3 3 3 3 3 3
8 8 7 7 7 7 7 7 6 6 6 5 5 5 5 4 4 4 4 4 4 3 3 3 3 3 3 3 3 3 3 3 3 3 3 3 3 2 2 2 3 3 3
7 7 7 7 7 7 6 6 6 6 5 5 5 4 4 4 4 4 4 4 3 3 3 3 3 2 2 2 2 2 2 2 2 2 2 2 2 2 2 2 2 2 2
7 7 7 7 7 6 6 6 6 5 5 5 4 4 4 4 3 3 3 3 3 3 3 2 2 2 2 2 2 2 2 2 2 2 2 2 2 2 2 2 2 2 2
7 6 6 6 6 6 6 6 5 5 4 4 4 4 4 3 3 3 3 3 3 2 2 2 2 2 2 2 2 2 1 1 1 2 2 2 1 1 2 2 2 2 2
6 6 6 6 6 6 5 5 5 4 4 4 4 3 3 3 3 3 3 2 2 2 2 2 2 2 2 1 1 1 1 1 1 1 1 1 1 1 1 2 2 2 2
6 6 6 6 6 5 5 5 4 4 4 4 3 3 3 3 2 2 2 2 2 1 1 1 1 1 1 1 1 1 0 0 1 1 1 1 1 1 1 1 2 2 2
5 5 6 5 5 5 5 4 4 4 3 3 3 3 2 2 2 2 1 1 1 1 1 1 1 1 1 1 1 0 0 0 0 0 0 1 1 1 1 1 1 1 1
5 5 5 5 5 4 4 4 4 3 3 3 2 2 2 2 2 1 1 1 1 1 1 1 1 1 1 1 0 0 -0 -0 -0 0 0 0 1 1 1 1 1 1 1
5 5 4 4 4 4 3 3 3 3 2 2 2 2 1 1 1 1 1 1 1 0 0 0 0 0 0 0 0 -0 -0 -1 -0 -0 0 0 0 0 0 1 1 1 1
4 4 4 4 3 3 3 3 3 2 2 2 1 1 1 1 1 1 1 0 0 0 0 0 0 0 -0 -0 -0 -0 -1 -1 -1 -1 -0 -0 -0 -0 0 0 1 1 1
3 3 3 3 3 3 2 2 2 2 1 1 1 1 1 1 0 0 0 0 -0 -0 -0 -0 -0 -0 -0 -1 -1 -1 -1 -1 -1 -1 -1 -1 -1 -0 -0 0 0 1 1
2 2 2 2 2 2 2 1 1 1 1 1 1 1 0 0 0 -0 -0 -0 -1 -1 -1 -1 -1 -1 -1 -1 -1 -1 -1 -1 -1 -1 -1 -1 -1 -1 -0 -0 0 1 1
2 2 2 2 1 1 1 1 0 0 0 0 0 -0 -0 -0 -0 -1 -1 -1 -1 -2 -2 -2 -2 -2 -2 -1 -1 -2 -2 -2 -2 -2 -2 -1 -1 -1 -1 -0 0 0 0
1 1 1 1 1 1 1 0 -0 -0 -0 -1 -1 -1 -1 -1 -1 -1 -1 -2 -2 -2 -3 -3 -3 -3 -2 -2 -2 -2 -2 -2 -2 -2 -1 -1 -1 -1 -1 -1 -0 -0 0
0 0 0 0 0 0 0 -0 -0 -1 -1 -1 -1 -1 -1 -1 -1 -2 -1 -2 -2 -2 -2 -3 -3 -3 -3 -2 -2 -2 -2 -2 -2 -1 -2 -2 -2 -2 -1 -1 -1 -1 -0
Wind_Speed
8 5 5 5 4 3 3 4 3 3 2 1 1 2 3 3 3 4 6 6 6 5 4 5 4 4 4 4 4 3 3 3 2 2 4 5 5 6 6 5 6 6 7
5 5 4 4 4 4 4 4 4 4 3 3 2 2 3 3 3 4 5 6 6 6 5 5 5 5 4 4 4 3 3 3 1 1 2 3 4 3 5 5 6 6 5
9 7 5 6 5 5 5 5 5 5 4 3 2 2 1 2 2 3 4 4 6 6 6 6 5 5 4 5 4 4 4 4 3 3 3 2 4 4 3 5 6 5 4
7 7 7 6 6 7 5 5 5 5 4 3 2 3 3 4 5 4 4 5 5 6 6 6 6 5 5 5 5 5 5 5 5 3 4 5 4 3 4 3 3 5 6
8 8 8 8 7 5 4 4 4 4 4 4 4 4 5 5 5 4 5 6 5 6 7 6 6 6 5 6 6 6 6 6 6 5 4 4 5 5 5 7 5 4 5
7 6 5 4 4 3 3 3 4 5 4 4 4 5 6 6 6 6 6 6 5 5 6 6 6 6 6 7 7 7 7 8 8 7 6 5 5 5 5 7 7 7 6
6 5 5 5 4 4 4 4 4 5 5 5 5 6 7 7 7 7 6 7 6 6 7 6 6 6 7 7 7 8 8 8 9 8 7 7 8 6 6 7 8 8 6
6 6 6 6 5 5 4 4 5 6 5 5 6 6 6 6 6 7 6 7 6 7 7 7 7 8 8 8 7 7 8 8 9 10 9 8 8 7 7 7 7 8 7
5 6 5 5 5 5 6 6 6 6 6 6 6 6 6 6 7 7 7 7 7 7 7 7 8 8 8 8 8 7 9 8 8 9 9 9 8 7 7 7 7 8 9
4 5 5 5 5 5 5 5 6 7 7 6 6 5 5 6 6 6 7 7 7 7 7 8 8 8 8 8 8 7 8 9 9 8 9 9 8 8 7 8 7 8 9
5 5 5 4 4 4 4 5 5 6 6 6 5 5 5 5 5 6 7 7 7 7 8 8 8 8 8 8 8 8 9 10 9 9 10 11 9 8 7 7 7 8 7
4 4 4 4 4 4 5 5 5 5 6 5 5 5 5 5 6 6 7 7 7 8 8 8 8 8 8 8 9 10 10 10 10 10 10 11 9 10 8 7 8 8 7
4 3 3 4 4 5 5 4 4 5 5 4 4 4 5 5 6 7 7 7 7 7 7 7 8 9 9 9 9 9 10 10 10 10 10 11 10 11 8 9 9 7 8
4 4 4 5 4 4 4 4 4 3 3 3 3 4 5 6 6 7 6 7 7 7 7 7 8 8 9 9 9 9 9 9 10 10 10 10 11 11 10 9 9 8 8
6 5 5 5 5 4 4 3 3 3 3 3 4 5 6 5 6 6 6 6 7 7 7 7 8 8 8 8 9 8 9 9 9 9 10 10 11 13 11 9 8 8 7
7 6 6 5 5 4 4 4 4 4 3 3 5 5 5 5 6 6 6 6 6 6 7 7 8 8 9 13 15 12 8 8 9 9 9 9 10 13 15 15 14 12 10
7 6 6 6 5 5 4 4 4 3 3 4 5 5 5 5 6 6 6 6 6 6 7 8 8 9 11 15 15 15 9 8 8 8 8 8 8 10 8 11 13 13 15
6 6 5 5 4 4 3 3 2 2 3 4 4 5 5 6 6 6 6 6 6 6 7 8 8 8 11 15 14 14 8 7 8 8 8 7 7 7 7 7 7 7 9
5 5 4 3 3 3 2 2 3 3 3 4 5 5 5 6 6 6 7 6 6 7 7 7 7 8 10 12 13 12 6 6 7 7 7 7 6 10 10 7 6 6 6
3 3 3 2 2 3 2 2 3 3 5 5 5 5 5 5 6 7 7 6 6 7 7 7 7 8 8 11 13 12 5 6 6 6 6 8 8 9 10 7 6 7 6
4 3 2 2 2 2 2 2 3 4 5 5 5 5 5 5 6 6 6 6 6 7 7 8 7 7 9 11 12 12 5 5 6 6 5 5 8 10 10 8 6 8 6
4 4 3 3 3 2 2 3 4 5 5 4 5 5 5 5 5 5 6 6 6 7 7 7 8 6 6 9 10 12 10 8 6 6 5 4 7 9 9 6 5 6 4
4 4 3 3 4 3 2 3 5 5 5 5 5 5 6 5 5 5 6 6 5 6 7 7 7 7 6 6 11 11 10 10 6 5 6 7 8 8 6 5 4 3 2
4 4 4 3 4 4 3 3 4 4 4 5 5 5 5 5 5 5 5 5 5 6 7 7 7 7 7 6 5 5 6 7 6 5 6 7 6 5 4 3 2 0 2
4 4 3 3 5 5 5 4 4 4 4 5 5 5 4 4 5 5 4 5 5 6 7 6 6 7 7 8 11 8 6 5 4 5 3 3 3 3 2 2 2 1 1
4 4 4 4 4 4 5 5 4 3 3 4 5 4 4 4 4 5 6 7 7 11 10 9 8 7 9 12 12 11 10 9 7 4 2 3 2 2 2 2 2 0 1
Wind_Direction
241 228 216 203 193 198 205 211 214 228 212 244 264 272 273 274 275 270 272 270 268 267 263 267 270 261 259 263 257 257 262 264 258 290 295 283 257 245 241 238 236 239 243
239 228 218 204 202 209 216 218 223 232 231 232 236 236 247 259 264 271 277 271 270 271 268 256 261 256 255 262 256 241 254 262 228 237 293 307 298 258 244 238 235 237 235
220 219 217 217 215 224 223 226 235 240 244 240 257 291 303 302 290 280 275 269 272 271 264 260 257 257 246 253 255 239 236 250 243 214 213 248 265 299 259 236 239 234 234
216 213 214 218 221 228 230 237 246 246 248 238 235 240 254 266 263 267 271 278 272 270 266 257 252 252 250 252 255 249 232 235 246 243 232 232 238 259 294 275 253 252 242
214 212 213 217 223 223 229 246 256 258 256 248 236 241 254 260 272 278 278 280 277 270 266 260 253 251 249 250 250 253 241 233 234 235 239 242 246 238 250 276 278 271 251
222 220 216 217 228 232 238 250 257 264 262 256 249 240 250 262 275 279 278 278 276 271 265 262 254 254 251 249 249 248 245 238 235 235 234 236 238 231 238 258 268 273 267
212 214 216 224 231 233 240 251 256 267 270 263 257 248 249 251 256 265 267 273 276 275 268 264 257 256 255 254 252 249 249 242 236 237 239 240 246 241 243 252 264 273 278
212 217 220 221 226 230 234 242 252 262 267 265 264 259 252 250 256 258 261 264 268 269 269 265 263 261 258 259 256 256 252 248 241 243 241 245 247 243 238 241 252 270 277
220 224 228 228 226 230 238 238 247 259 267 267 267 263 256 252 259 264 263 265 267 271 268 267 266 264 260 258 255 257 255 253 246 243 243 246 249 246 244 237 229 244 265
234 235 238 237 236 240 249 250 247 253 263 266 264 269 264 262 264 267 269 269 270 269 271 271 270 268 266 263 259 262 257 253 252 245 244 248 252 248 245 236 234 236 249
241 242 247 248 251 254 252 251 254 261 267 267 266 270 275 275 275 274 273 273 273 271 268 268 269 268 267 265 261 261 260 255 256 252 246 248 248 247 247 239 234 238 241
257 256 256 264 265 259 260 254 254 259 264 267 268 271 276 281 283 282 281 279 278 275 269 268 267 267 267 264 260 261 261 256 256 255 250 250 248 243 244 241 237 239 242
272 274 270 268 269 268 264 258 258 262 269 272 273 278 279 283 284 285 286 285 284 279 274 271 269 269 268 268 264 262 261 257 255 254 252 251 245 244 243 242 240 239 244
271 272 274 275 277 278 270 264 269 270 279 285 281 281 281 280 282 287 289 288 287 284 280 275 272 271 271 269 268 266 262 260 259 255 252 253 245 242 240 242 239 237 239
277 270 269 275 278 280 279 271 276 281 285 289 287 282 285 285 288 292 293 290 288 288 285 284 284 284 281 274 275 273 268 266 267 264 257 253 254 251 245 244 236 232 237
267 271 275 277 273 269 275 281 281 283 283 282 281 284 288 293 296 297 297 296 293 292 293 291 289 289 287 288 287 286 276 270 266 268 265 259 256 259 255 254 249 239 235
269 270 270 269 267 264 261 264 272 283 285 283 286 291 294 295 295 297 299 296 297 296 294 291 290 289 290 293 290 290 286 277 271 267 267 265 260 262 254 256 256 250 246
273 272 272 276 283 281 279 278 288 290 290 292 295 297 297 295 296 295 293 296 295 293 295 295 292 291 293 298 297 298 292 283 278 272 267 263 262 257 254 253 248 244 245
275 273 272 276 290 294 296 304 304 302 297 293 292 293 294 297 300 297 293 293 297 298 296 296 296 294 294 297 299 300 288 285 284 279 269 259 258 255 259 258 253 253 252
308 307 317 332 326 316 338 333 304 304 297 292 291 294 293 294 296 295 298 300 300 299 301 301 300 296 294 295 302 303 295 293 292 289 279 267 262 261 263 252 244 249 249
332 338 348 342 319 323 355 334 312 299 295 303 304 300 298 297 297 301 304 306 307 308 308 306 304 300 297 299 303 304 298 290 293 292 289 278 272 273 276 270 253 245 243
344 349 354 342 343 353 1 329 311 309 318 320 316 311 307 308 311 311 311 311 310 311 312 312 311 309 306 309 311 311 305 300 297 295 296 293 290 289 291 286 259 246 245
339 345 350 344 345 352 355 313 312 326 330 328 319 319 322 319 316 313 312 315 315 313 314 314 314 316 317 317 320 324 326 321 309 300 298 299 296 296 296 291 276 255 205
336 337 346 342 331 334 335 313 317 329 331 325 320 321 323 324 326 324 317 315 314 311 311 312 313 316 319 322 326 326 326 326 325 322 322 326 330 329 326 324 319 287 158
330 336 333 320 317 326 329 329 330 337 333 325 320 322 324 322 324 320 315 312 304 299 304 303 306 311 315 318 325 324 323 323 315 322 334 350 349 350 355 358 2 82 135
334 336 329 322 318 324 324 327 333 337 331 326 325 323 321 319 322 324 324 320 315 317 317 314 310 312 312 317 323 327 328 326 322 331 348 342 335 326 328 338 345 30 145
Height
1461 1463 1465 1466 1467 1467 1468 1468 1469 1469 1469 1468 1467 1466 1465 1464 1464 1463 1461 1460 1459 1458 1456 1455 1454 1454 1453 1452 1452 1451 1451 1450 1450 1449 1448 1448 1448 1448 1449 1449 1450 1451 1452
1457 1459 1461 1462 1463 1464 1464 1465 1465 1465 1465 1465 1464 1463 1462 1460 1459 1458 1457 1456 1455 1454 1452 1451 1450 1449 1448 1448 1447 1447 1446 1446 1446 1446 1444 1443 1442 1441 1442 1443 1444 1445 1447
1452 1455 1457 1458 1459 1460 1461 1461 1462 1462 1462 1461 1460 1459 1458 1456 1455 1454 1453 1452 1451 1449 1448 1447 1446 1444 1444 1443 1443 1442 1442 1441 1442 1443 1443 1441 1438 1436 1435 1436 1437 1438 1439
1448 1450 1453 1454 1456 1457 1458 1458 1458 1458 1458 1457 1456 1455 1453 1452 1450 1449 1448 1447 1446 1445 1443 1442 1441 1440 1439 1438 1438 1438 1437 1437 1436 1438 1438 1438 1437 1435 1430 1430 1432 1432 1433
1444 1446 1448 1450 1452 1454 1455 1455 1455 1455 1454 1453 1452 1451 1449 1448 1446 1445 1443 1442 1441 1440 1439 1437 1436 1435 1434 1433 1433 1432 1432 1432 1431 1431 1432 1432 1432 1430 1429 1424 1424 1426 1426
1440 1443 1445 1447 1449 1450 1451 1451 1451 1450 1450 1449 1448 1446 1445 1443 1442 1440 1438 1437 1435 1434 1433 1432 1431 1430 1429 1428 1427 1427 1426 1426 1425 1426 1426 1426 1426 1424 1424 1421 1419 1419 1420
1437 1439 1441 1443 1444 1446 1446 1447 1446 1446 1446 1445 1443 1442 1440 1439 1437 1435 1433 1432 1430 1429 1428 1427 1425 1424 1423 1423 1422 1421 1420 1419 1419 1419 1419 1420 1420 1420 1420 1418 1415 1414 1414
1433 1435 1437 1439 1440 1441 1442 1443 1442 1441 1441 1440 1438 1437 1436 1434 1432 1431 1429 1427 1425 1423 1422 1421 1420 1419 1418 1417 1416 1414 1414 1413 1412 1412 1413 1413 1413 1413 1413 1413 1412 1409 1408
1431 1432 1434 1435 1437 1438 1438 1438 1438 1437 1436 1435 1434 1432 1431 1429 1427 1426 1424 1421 1420 1418 1416 1415 1414 1412 1411 1411 1409 1408 1407 1406 1406 1406 1406 1405 1405 1406 1406 1406 1406 1406 1403
1428 1430 1431 1432 1433 1434 1434 1434 1434 1433 1432 1431 1429 1427 1426 1424 1422 1420 1418 1416 1414 1412 1410 1409 1407 1406 1405 1404 1403 1401 1400 1400 1399 1398 1398 1398 1398 1398 1399 1399 1399 1399 1399
1426 1427 1428 1429 1430 1430 1430 1429 1429 1428 1427 1425 1424 1422 1420 1418 1416 1414 1412 1410 1408 1406 1404 1402 1401 1400 1398 1397 1396 1395 1394 1393 1391 1391 1391 1390 1390 1391 1391 1392 1392 1392 1392
1425 1425 1426 1426 1426 1426 1425 1425 1424 1423 1422 1420 1419 1417 1415 1413 1411 1409 1407 1405 1402 1400 1398 1397 1395 1393 1392 1391 1390 1388 1387 1385 1384 1383 1383 1383 1383 1383 1384 1384 1384 1384 1385
1423 1423 1423 1423 1422 1422 1421 1420 1420 1418 1417 1416 1414 1412 1410 1408 1406 1404 1402 1400 1397 1394 1393 1391 1389 1388 1386 1385 1383 1382 1380 1379 1377 1376 1376 1375 1376 1375 1376 1377 1377 1377 1379
1421 1420 1420 1420 1419 1418 1417 1416 1415 1414 1413 1411 1410 1408 1406 1404 1402 1400 1398 1395 1392 1390 1388 1386 1384 1382 1380 1379 1377 1375 1373 1371 1370 1369 1368 1368 1368 1368 1369 1369 1370 1371 1372
1418 1417 1417 1416 1416 1415 1414 1413 1411 1410 1409 1407 1406 1404 1402 1400 1398 1396 1393 1390 1388 1385 1383 1381 1379 1377 1375 1373 1371 1369 1367 1365 1363 1362 1361 1361 1361 1361 1362 1363 1363 1364 1365
1414 1414 1413 1413 1412 1411 1410 1409 1408 1407 1405 1403 1402 1400 1398 1395 1393 1391 1388 1386 1383 1381 1378 1376 1373 1371 1369 1368 1366 1364 1361 1359 1357 1355 1354 1354 1354 1355 1356 1356 1357 1358 1358
1411 1410 1410 1409 1408 1408 1407 1405 1404 1403 1401 1399 1398 1396 1394 1391 1389 1387 1384 1381 1379 1376 1373 1371 1368 1366 1364 1362 1360 1358 1356 1353 1351 1349 1348 1347 1347 1348 1348 1349 1350 1351 1352
1407 1407 1406 1406 1405 1404 1403 1402 1401 1399 1398 1396 1394 1392 1390 1387 1385 1382 1380 1377 1374 1371 1368 1366 1363 1360 1358 1356 1354 1352 1350 1347 1345 1344 1342 1341 1341 1342 1343 1342 1342 1343 1344
1405 1404 1403 1403 1402 1401 1400 1399 1397 1396 1394 1392 1390 1389 1386 1384 1381 1378 1376 1373 1370 1367 1364 1361 1358 1355 1352 1351 1349 1347 1344 1341 1339 1338 1337 1336 1335 1336 1337 1337 1336 1337 1338
1402 1401 1400 1400 1399 1398 1397 1395 1394 1392 1391 1389 1387 1385 1383 1380 1378 1375 1372 1369 1366 1363 1360 1357 1354 1351 1348 1346 1344 1343 1340 1337 1334 1333 1331 1331 1330 1330 1331 1331 1331 1331 1331
1399 1399 1398 1397 1396 1395 1394 1392 1390 1389 1388 1386 1384 1382 1380 1377 1375 1372 1369 1366 1362 1359 1356 1353 1350 1347 1344 1342 1340 1338 1336 1333 1331 1328 1327 1325 1325 1325 1325 1326 1326 1326 1327
1397 1396 1395 1395 1394 1393 1392 1389 1388 1387 1385 1382 1380 1378 1376 1374 1371 1368 1365 1362 1359 1356 1352 1349 1345 1343 1341 1338 1336 1334 1332 1330 1328 1325 1323 1321 1321 1321 1321 1320 1321 1321 1322
1396 1395 1394 1392 1392 1391 1390 1387 1385 1384 1381 1379 1377 1375 1373 1370 1368 1365 1362 1359 1356 1353 1349 1346 1342 1339 1337 1335 1333 1330 1328 1326 1325 1322 1320 1319 1318 1317 1316 1316 1316 1317 1318
1394 1393 1392 1390 1389 1389 1387 1385 1383 1381 1379 1376 1374 1372 1369 1367 1365 1362 1359 1356 1353 1350 1347 1343 1340 1337 1334 1332 1329 1327 1325 1323 1321 1319 1317 1316 1315 1314 1313 1313 1313 1314 1315
1393 1391 1390 1388 1387 1386 1384 1383 1381 1378 1376 1374 1372 1369 1367 1364 1362 1359 1357 1354 1351 1349 1345 1342 1339 1335 1331 1329 1328 1325 1322 1321 1319 1317 1315 1313 1312 1311 1311 1311 1311 1312 1314
1390 1389 1388 1386 1385 1383 1382 1380 1378 1376 1373 1371 1369 1366 1364 1361 1359 1356 1353 1351 1349 1346 1343 1341 1338 1334 1331 1328 1326 1323 1321 1320 1318 1316 1314 1312 1311 1311 1310 1310 1310 1311 1312